Regional Weather Roundup
Issued by NWS Cleveland, OH

Home | Current Version | Previous Version | Graphics & Text | Print | Product List | Glossary On
Versions: 1 2 3 4 5 6 7 8 9 10 11 12 13 14 15 16 17 18 19 20 21 22 23 24 25 26 27 28 29 30 31 32 33 34 35 36 37 38 39 40 41 42 43 44 45 46 47 48 49 50
000
ASUS41 KCLE 240102
RWRCLE
OHIO REGIONAL WEATHER ROUNDUP
NATIONAL WEATHER SERVICE CLEVELAND, OH
900 PM EDT FRI JUN 23 2017

NOTE: "FAIR" INDICATES FEW OR NO CLOUDS BELOW 12,000 FEET WITH NO
SIGNIFICANT WEATHER AND/OR OBSTRUCTIONS TO VISIBILITY.

OHZ001>008-015>018-024>027-034-035-043-044-240200-
   NORTHWEST OHIO

CITY           SKY/WX    TMP DP  RH WIND       PRES   REMARKS
DEFIANCE       CLOUDY    70  57  63 W3        29.71R
FINDLAY        MOCLDY    71  66  84 SW7       29.69R
TOLEDO EXPRESS CLOUDY    71  62  73 W8        29.68R
TOLEDO EXEC    CLOUDY    74  66  76 W8        29.68R
LIMA           CLOUDY    70  68  93 W8        29.71R
$$

OHZ009>014-019>023-028>033-038-089-240200-
   NORTHEAST OHIO

CITY           SKY/WX    TMP DP  RH WIND       PRES   REMARKS
CLE-HOPKINS    CLOUDY    73  67  81 W9        29.69R FOG
CLE-LAKEFRONT  CLOUDY    72  66  81 SW13      29.65R
CUY CO. ARPT   CLOUDY    73  66  78 W14       29.67R
LORAIN-ELYRIA  CLOUDY    70  62  76 W9        29.68R
ASHTABULA      CLOUDY    72  69  90 W9        29.66R
AKRON-CANTON   CLOUDY    71  66  84 W6        29.70R
WOOSTER        CLOUDY    69  66  90 W8        29.71S
MANSFIELD      CLOUDY    68  67  96 W7        29.71F
YOUNGSTOWN     LGT RAIN  70  67  90 SW7       29.69R
$$

OHZ042-051>053-060>062-070>072-077>081-240200-
  SOUTHWEST OHIO

CITY           SKY/WX    TMP DP  RH WIND       PRES   REMARKS
CINC-COVINGTON CLOUDY    69  68  96 CALM      29.73R
CINC-LUNKEN    CLOUDY    68  68 100 N5        29.72R
HAMILTON       CLOUDY    69  69 100 CALM      29.73R
DAYTON         DRIZZLE   68  67  96 SW6       29.72F
WRIGHT-PAT AFB CLOUDY    68  68 100 SW3       29.71F
DAYTON GENERAL CLOUDY    68  67  96 CALM      29.71F
WILMINGTON     RAIN      66  66 100 SE5       29.71F FOG
$$

OHZ036-037-039>041-045>050-054>059-063>069-073>076-082>088-240200-
  CENTRAL AND SOUTHEAST OHIO

CITY           SKY/WX    TMP DP  RH WIND       PRES   REMARKS
COLUMBUS       LGT RAIN  69  69 100 SW5       29.68F
OSU AIRPORT    CLOUDY    68  68 100 W6        29.70F
BOLTON FIELD   NOT AVBL
RICKENBACK AFB LGT RAIN  66  66 100 S5        29.68F
NEWARK         LGT RAIN  68  66  93 S3        29.69F
MARION         CLOUDY    69  66  90 W6        29.71F
LANCASTER      LGT RAIN  67  66  97 CALM      29.71F
ZANESVILLE     LGT RAIN  68  66  93 S3        29.71F
NEW PHILLY     NOT AVBL
$$



USA.gov is the U.S. government's official web portal to all federal, state and local government web resources and services.